Wetter

Ora Tempo Temperatura Umidità Vento Precipitazioni
00:00 Klarer Himmel 24.6° 71% 0.43 km/h 0 mm
03:00 Klarer Himmel 23.5° 67% 0.9 km/h 0 mm
06:00 Klarer Himmel 27.1° 52% 0.41 km/h 0 mm
09:00 Klarer Himmel 32.7° 33% 2.93 km/h 0 mm
12:00 Klarer Himmel 33.7° 28% 4.88 km/h 0 mm
15:00 Klarer Himmel 32.3° 32% 4.82 km/h 0 mm
18:00 Klarer Himmel 26.4° 57% 2.31 km/h 0 mm
21:00 Klarer Himmel 21.0° 91% 1.01 km/h 0 mm
Ora Tempo Temperatura Umidità Vento Precipitazioni
00:00 Klarer Himmel 20.3° 93% 0.9 km/h 0 mm
03:00 Klarer Himmel 19.6° 88% 0.97 km/h 0 mm
06:00 Klarer Himmel 23.2° 69% 1.37 km/h 0 mm
09:00 Klarer Himmel 29.4° 45% 4.7 km/h 0 mm
12:00 Überwiegend bewölkt 29.4° 56% 6.59 km/h 0 mm
15:00 Klarer Himmel 28.5° 61% 6.62 km/h 0 mm
18:00 Überwiegend bewölkt 24.4° 85% 5.01 km/h 0 mm
21:00 Leichter Regen 22.5° 95% 1.78 km/h 0.69 mm
Ora Tempo Temperatura Umidità Vento Precipitazioni
00:00 Mäßiger Regen 21.8° 96% 1.75 km/h 5.62 mm
03:00 Mäßiger Regen 21.4° 87% 3.23 km/h 9.81 mm
06:00 Leichter Regen 22.6° 79% 2.32 km/h 1.69 mm
09:00 Mäßiger Regen 23.8° 69% 3.6 km/h 4.75 mm
12:00 Mäßiger Regen 23.4° 70% 5.84 km/h 4.06 mm
15:00 Leichter Regen 23.4° 70% 6.6 km/h 1.69 mm
18:00 Leichter Regen 21.4° 81% 3.11 km/h 0.12 mm
21:00 Klarer Himmel 19.1° 91% 1.61 km/h 0 mm
Ora Tempo Temperatura Umidità Vento Precipitazioni
00:00 Klarer Himmel 19.1° 87% 1.81 km/h 0 mm
03:00 Klarer Himmel 18.7° 90% 0.81 km/h 0 mm
06:00 Klarer Himmel 21.7° 79% 1.13 km/h 0 mm
09:00 Ein paar Wolken 27.0° 53% 2.13 km/h 0 mm
12:00 Klarer Himmel 30.2° 45% 2.51 km/h 0 mm
15:00 Überwiegend bewölkt 29.3° 48% 2.67 km/h 0 mm
18:00 Überwiegend bewölkt 23.4° 67% 3.58 km/h 0 mm
21:00 Klarer Himmel 19.9° 79% 2.43 km/h 0 mm
Ora Tempo Temperatura Umidità Vento Precipitazioni
00:00 Klarer Himmel 18.9° 93% 1.51 km/h 0 mm
03:00 Klarer Himmel 18.1° 94% 1.23 km/h 0 mm
06:00 Klarer Himmel 21.6° 78% 1.24 km/h 0 mm
09:00 Klarer Himmel 27.7° 49% 1.92 km/h 0 mm
12:00 Klarer Himmel 31.1° 34% 3.69 km/h 0 mm
15:00 Klarer Himmel 29.5° 35% 4.2 km/h 0 mm
18:00 Klarer Himmel 24.0° 66% 1.95 km/h 0 mm
21:00 Klarer Himmel 20.3° 81% 1.51 km/h 0 mm
Freitag 26 Juli
Temp. max: 33.7°
Temp. min: 21.0°
Ora Tempo Temperatura Umidità Vento Precipitazioni
00:00 Klarer Himmel 24.6° 71% 0.43 km/h 0 mm
03:00 Klarer Himmel 23.5° 67% 0.9 km/h 0 mm
06:00 Klarer Himmel 27.1° 52% 0.41 km/h 0 mm
09:00 Klarer Himmel 32.7° 33% 2.93 km/h 0 mm
12:00 Klarer Himmel 33.7° 28% 4.88 km/h 0 mm
15:00 Klarer Himmel 32.3° 32% 4.82 km/h 0 mm
18:00 Klarer Himmel 26.4° 57% 2.31 km/h 0 mm
21:00 Klarer Himmel 21.0° 91% 1.01 km/h 0 mm
Samstag 27 Juli
Temp. max: 29.4°
Temp. min: 19.6°
Ora Tempo Temperatura Umidità Vento Precipitazioni
00:00 Klarer Himmel 20.3° 93% 0.9 km/h 0 mm
03:00 Klarer Himmel 19.6° 88% 0.97 km/h 0 mm
06:00 Klarer Himmel 23.2° 69% 1.37 km/h 0 mm
09:00 Klarer Himmel 29.4° 45% 4.7 km/h 0 mm
12:00 Überwiegend bewölkt 29.4° 56% 6.59 km/h 0 mm
15:00 Klarer Himmel 28.5° 61% 6.62 km/h 0 mm
18:00 Überwiegend bewölkt 24.4° 85% 5.01 km/h 0 mm
21:00 Leichter Regen 22.5° 95% 1.78 km/h 0.69 mm
Sonntag 28 Juli
Temp. max: 23.8°
Temp. min: 19.1°
Ora Tempo Temperatura Umidità Vento Precipitazioni
00:00 Mäßiger Regen 21.8° 96% 1.75 km/h 5.62 mm
03:00 Mäßiger Regen 21.4° 87% 3.23 km/h 9.81 mm
06:00 Leichter Regen 22.6° 79% 2.32 km/h 1.69 mm
09:00 Mäßiger Regen 23.8° 69% 3.6 km/h 4.75 mm
12:00 Mäßiger Regen 23.4° 70% 5.84 km/h 4.06 mm
15:00 Leichter Regen 23.4° 70% 6.6 km/h 1.69 mm
18:00 Leichter Regen 21.4° 81% 3.11 km/h 0.12 mm
21:00 Klarer Himmel 19.1° 91% 1.61 km/h 0 mm
Montag 29 Juli
Temp. max: 30.2°
Temp. min: 18.7°
Ora Tempo Temperatura Umidità Vento Precipitazioni
00:00 Klarer Himmel 19.1° 87% 1.81 km/h 0 mm
03:00 Klarer Himmel 18.7° 90% 0.81 km/h 0 mm
06:00 Klarer Himmel 21.7° 79% 1.13 km/h 0 mm
09:00 Ein paar Wolken 27.0° 53% 2.13 km/h 0 mm
12:00 Klarer Himmel 30.2° 45% 2.51 km/h 0 mm
15:00 Überwiegend bewölkt 29.3° 48% 2.67 km/h 0 mm
18:00 Überwiegend bewölkt 23.4° 67% 3.58 km/h 0 mm
21:00 Klarer Himmel 19.9° 79% 2.43 km/h 0 mm
Dienstag 30 Juli
Temp. max: 31.1°
Temp. min: 18.1°
Ora Tempo Temperatura Umidità Vento Precipitazioni
00:00 Klarer Himmel 18.9° 93% 1.51 km/h 0 mm
03:00 Klarer Himmel 18.1° 94% 1.23 km/h 0 mm
06:00 Klarer Himmel 21.6° 78% 1.24 km/h 0 mm
09:00 Klarer Himmel 27.7° 49% 1.92 km/h 0 mm
12:00 Klarer Himmel 31.1° 34% 3.69 km/h 0 mm
15:00 Klarer Himmel 29.5° 35% 4.2 km/h 0 mm
18:00 Klarer Himmel 24.0° 66% 1.95 km/h 0 mm
21:00 Klarer Himmel 20.3° 81% 1.51 km/h 0 mm

Live Cam

VUOI RICEVERE PIÚ INFORMAZIONI SUI NOSTRI SERVIZI?

Usa la form di contatti sul sito o contattaci telefonicamente